Retour au catalogue

STARLINK-31056

ActifCommunicationsVLEO
NORAD 58550·PAYLOAD·🇺🇸 United States

Lancé Dec 8, 2023 depuis Vandenberg Space Force Base

Loading…

Prochains Passages (prochaines 24 heures)

TLE

FraisSource: CelesTrak SupGP

Époque: Sep 15, 2026, 02:01 UTC

1 58550C 23192V   26258.08451389 -.00004584  00000+0 -13541-3 0  2588
2 58550  53.1567 260.9852 0001197  99.7604 177.6390 15.34401206    17

Suivez STARLINK-31056 en temps réel avec AllMySat

Download on the App Store